Weather in Grigoryevskoye

Russia / Perm Krai     58°13′12″N   55°22′52″E
temp.,
°C
wind,
m/s
gust,
m/s
humid.,
%
clouds,
%
prec.,
mm/h
press.,
hPa
HPBL,
m
3 march, wed
wed323:00−6ssw41096100 1.8 994433
02:00−6ssw3697100 0.7 993170
05:00−7wsw239896 0.8 99461
08:00−10w259765 0.0 994104
11:00−6w359579 0.1 996246
14:00−3w359398 0.1 996441
17:00−3w259398 0.3 997439
20:00−6wnw129895 0.3 99621
4 march, thu
thu423:00−7nw379594 0.5 997268
02:00−10w2696100 0.1 996181
05:00−13w259795 0.1 996111
08:00−14wsw259794 0.0 996112
11:00−10sw369495 0.1 995319
14:00−6ssw3693100 0.3 994520
17:00−6ssw4892100 0.8 993603
20:00−6s3896100 0.4 992429
5 march, fri
fri523:00−7se239799 0.9 99192
02:00−10ene119897 0.1 99121
05:00−9nw129698 0.4 99421
08:00−10nw259692 0.1 996170
11:00−10nw249392 0.1 998248
14:00−7w238897 0.1 1000487
17:00−7w238798 0.2 1001650
20:00−10nw2297100 0.1 100252
6 march, sat
sat623:00−15nnw259697 0.2 1004122
02:00−18nw23987 0.0 100544
05:00−20wnw239928 0.0 100737
08:00−18w279788 0.0 1009215
11:00−16w359390 0.1 1010271
14:00−11wsw248621 0.0 1009416
17:00−10ssw358935 0.1 1008674
20:00−13s399695 0.1 1007294
7 march, sun
sun723:00−14sw259796 0.6 1007133
02:00−16nw2497100 0.2 100792
05:00−21wnw229894 0.2 100820
08:00−24w12980 0.0 100820
11:00−18sw239211 0.0 1009232
14:00−14ssw369052 0.1 1009646
17:00−12ssw478876 0.2 1008824
20:00−14ssw31096100 0.1 1008379